QPF
0.01 0.02 0.02 0.03 0.04 0.06 0.05 0.02 0.02 0.03 0.02 0.01 0.02 0.02 0.01 0.00 0.01 0.01 0.02 0.01 0.01 0.01 0.02 0.04 0.08 0.05 0.04 0.05 0.06 0.06 0.05 0.04 0.04 0.04 0.03 0.04 0.04 0.05 0.05 0.03 0.04 0.11 0.16 0.16 0.09 0.06 0.05 0.06 0.07
0.01 0.01 0.02 0.04 0.04 0.06 0.05 0.02 0.04 0.04 0.02 0.01 0.01 0.01 0.00 0.00 0.01 0.01 0.01 0.01 0.00 0.00 0.01 0.03 0.05 0.04 0.04 0.04 0.04 0.04 0.03 0.02 0.03 0.03 0.03 0.02 0.04 0.04 0.04 0.03 0.03 0.05 0.07 0.07 0.06 0.05 0.05 0.06 0.07
0.02 0.03 0.02 0.02 0.02 0.02 0.02 0.02 0.05 0.05 0.02 0.01 0.01 0.01 0.00 0.00 0.00 0.01 0.01 0.00 0.00 0.00 0.01 0.03 0.04 0.03 0.03 0.04 0.03 0.04 0.03 0.03 0.03 0.03 0.03 0.02 0.03 0.04 0.05 0.04 0.04 0.04 0.04 0.04 0.04 0.05 0.06 0.07 0.08
0.02 0.01 0.01 0.00 0.01 0.01 0.00 0.00 0.02 0.03 0.03 0.02 0.01 0.01 0.01 0.01 0.01 0.01 0.00 0.00 0.00 0.00 0.01 0.02 0.02 0.02 0.02 0.04 0.04 0.05 0.05 0.04 0.02 0.02 0.02 0.02 0.02 0.04 0.04 0.03 0.04 0.04 0.04 0.04 0.05 0.06 0.06 0.06 0.07
0.01 0.01 0.00 0.00 0.00 0.00 0.00 0.00 0.01 0.01 0.03 0.04 0.03 0.02 0.02 0.02 0.02 0.01 0.01 0.00 0.00 0.00 0.01 0.02 0.02 0.02 0.03 0.03 0.04 0.04 0.04 0.03 0.02 0.02 0.03 0.03 0.02 0.03 0.05 0.06 0.06 0.04 0.04 0.05 0.06 0.07 0.05 0.04 0.04
0.00 0.01 0.01 0.00 0.00 0.00 0.00 0.00 0.00 0.01 0.02 0.03 0.04 0.03 0.04 0.05 0.04 0.02 0.01 0.01 0.00 0.00 0.01 0.01 0.02 0.02 0.03 0.03 0.05 0.07 0.05 0.04 0.03 0.02 0.03 0.02 0.02 0.03 0.04 0.09 0.10 0.06 0.04 0.04 0.05 0.04 0.03 0.03 0.03
0.00 0.00 0.00 0.00 0.00 0.00 0.00 0.00 0.00 0.00 0.01 0.02 0.04 0.04 0.04 0.06 0.06 0.04 0.03 0.01 0.00 0.00 0.01 0.00 0.01 0.02 0.03 0.04 0.05 0.06 0.05 0.06 0.06 0.04 0.04 0.03 0.03 0.03 0.02 0.03 0.05 0.05 0.05 0.06 0.05 0.04 0.04 0.04 0.03
0.00 0.00 0.00 0.00 0.00 0.00 0.00 0.00 0.01 0.00 0.01 0.01 0.02 0.02 0.03 0.06 0.07 0.05 0.04 0.02 0.02 0.02 0.02 0.01 0.01 0.01 0.01 0.02 0.04 0.06 0.05 0.05 0.05 0.04 0.04 0.04 0.04 0.03 0.03 0.03 0.04 0.05 0.07 0.11 0.09 0.07 0.05 0.04 0.04
0.00 0.00 0.00 0.00 0.00 0.00 0.00 0.01 0.00 0.00 0.01 0.00 0.00 0.01 0.01 0.03 0.06 0.05 0.04 0.04 0.04 0.04 0.04 0.03 0.02 0.02 0.01 0.01 0.03 0.05 0.04 0.04 0.03 0.02 0.02 0.02 0.01 0.01 0.02 0.03 0.05 0.05 0.07 0.07 0.07 0.06 0.05 0.03 0.02
0.00 0.00 0.00 0.00 0.00 0.01 0.01 0.01 0.01 0.01 0.00 0.00 0.01 0.01 0.00 0.01 0.03 0.04 0.04 0.03 0.03 0.03 0.02 0.02 0.02 0.03 0.02 0.02 0.01 0.01 0.01 0.01 0.01 0.00 0.01 0.01 0.01 0.00 0.00 0.02 0.04 0.04 0.04 0.04 0.04 0.04 0.03 0.02 0.01
0.01 0.00 0.00 0.00 0.00 0.00 0.00 0.00 0.00 0.00 0.00 0.00 0.01 0.01 0.01 0.01 0.02 0.02 0.02 0.02 0.02 0.02 0.02 0.02 0.03 0.02 0.02 0.01 0.01 0.01 0.01 0.01 0.00 0.00 0.00 0.01 0.01 0.00 0.00 0.01 0.02 0.02 0.01 0.01 0.02 0.02 0.01 0.01 0.00
0.01 0.00 0.00 0.00 0.00 0.00 0.00 0.00 0.00 0.00 0.00 0.00 0.00 0.00 0.00 0.00 0.01 0.01 0.01 0.00 0.01 0.01 0.02 0.02 0.02 0.02 0.01 0.01 0.01 0.01 0.01 0.01 0.00 0.01 0.00 0.01 0.01 0.01 0.01 0.01 0.00 0.00 0.00 0.01 0.01 0.01 0.01 0.01 0.01
0.00 0.00 0.00 0.00 0.00 0.00 0.00 0.00 0.00 0.00 0.00 0.01 0.00 0.00 0.00 0.00 0.00 0.01 0.01 0.00 0.00 0.00 0.00 0.01 0.02 0.02 0.01 0.00 0.01 0.01 0.02 0.01 0.00 0.01 0.00 0.00 0.01 0.01 0.01 0.00 0.00 0.00 0.00 0.01 0.01 0.01 0.01 0.01 0.01
0.00 0.00 0.00 0.00 0.00 0.00 0.00 0.00 0.00 0.00 0.00 0.01 0.01 0.00 0.00 0.01 0.01 0.00 0.00 0.00 0.01 0.00 0.00 0.00 0.01 0.01 0.01 0.01 0.00 0.01 0.01 0.01 0.00 0.00 0.00 0.00 0.00 0.00 0.00 0.00 0.00 0.00 0.00 0.00 0.00 0.00 0.01 0.02 0.02
0.00 0.00 0.00 0.00 0.00 0.00 0.00 0.00 0.00 0.00 0.00 0.00 0.00 0.01 0.01 0.02 0.01 0.00 0.01 0.01 0.01 0.00 0.00 0.00 0.01 0.01 0.01 0.01 0.00 0.00 0.01 0.00 0.01 0.01 0.01 0.01 0.01 0.00 0.00 0.00 0.00 0.01 0.01 0.01 0.01 0.01 0.02 0.03 0.04
0.00 0.00 0.00 0.00 0.00 0.00 0.00 0.00 0.00 0.00 0.00 0.00 0.00 0.00 0.01 0.02 0.01 0.01 0.01 0.01 0.00 0.00 0.00 0.01 0.01 0.01 0.01 0.01 0.01 0.01 0.01 0.00 0.01 0.01 0.01 0.01 0.01 0.01 0.01 0.01 0.00 0.00 0.01 0.01 0.01 0.02 0.06 0.06 0.05
0.00 0.00 0.00 0.00 0.00 0.00 0.00 0.00 0.00 0.00 0.00 0.00 0.00 0.00 0.00 0.01 0.01 0.01 0.00 0.00 0.00 0.00 0.01 0.02 0.01 0.01 0.01 0.01 0.00 0.01 0.01 0.01 0.01 0.01 0.01 0.01 0.01 0.01 0.01 0.01 0.01 0.01 0.01 0.02 0.03 0.04 0.06 0.06 0.06
0.00 0.01 0.01 0.01 0.01 0.00 0.00 0.00 0.00 0.00 0.00 0.00 0.00 0.00 0.00 0.00 0.01 0.01 0.00 0.01 0.01 0.01 0.02 0.03 0.03 0.02 0.01 0.01 0.01 0.01 0.01 0.01 0.01 0.01 0.01 0.01 0.01 0.01 0.01 0.01 0.01 0.01 0.02 0.03 0.04 0.05 0.07 0.06 0.05
0.00 0.00 0.00 0.00 0.00 0.00 0.00 0.00 0.00 0.00 0.00 0.00 0.00 0.00 0.00 0.00 0.01 0.00 0.01 0.01 0.01 0.01 0.02 0.03 0.03 0.03 0.02 0.01 0.01 0.01 0.01 0.01 0.01 0.01 0.01 0.02 0.01 0.02 0.01 0.02 0.02 0.01 0.02 0.02 0.03 0.02 0.03 0.04 0.03
0.00 0.00 0.00 0.00 0.00 0.00 0.00 0.00 0.00 0.00 0.00 0.00 0.00 0.00 0.00 0.01 0.01 0.00 0.00 0.00 0.00 0.01 0.01 0.01 0.02 0.03 0.03 0.02 0.01 0.01 0.01 0.01 0.01 0.01 0.01 0.01 0.01 0.02 0.01 0.01 0.01 0.01 0.01 0.01 0.01 0.02 0.02 0.04 0.03
0.00 0.00 0.00 0.00 0.00 0.00 0.00 0.00 0.00 0.00 0.00 0.00 0.00 0.00 0.01 0.01 0.01 0.01 0.00 0.00 0.00 0.00 0.01 0.01 0.01 0.02 0.03 0.03 0.01 0.01 0.00 0.01 0.01 0.02 0.01 0.02 0.01 0.02 0.02 0.01 0.01 0.01 0.01 0.01 0.01 0.01 0.02 0.03 0.03
0.00 0.00 0.00 0.00 0.00 0.00 0.00 0.00 0.00 0.00 0.00 0.00 0.00 0.00 0.00 0.00 0.00 0.00 0.01 0.00 0.00 0.00 0.01 0.01 0.01 0.01 0.02 0.02 0.01 0.00 0.00 0.01 0.01 0.02 0.02 0.02 0.02 0.02 0.02 0.01 0.01 0.01 0.01 0.01 0.01 0.01 0.01 0.01 0.02
0.00 0.00 0.00 0.00 0.00 0.00 0.00 0.00 0.00 0.00 0.00 0.00 0.00 0.00 0.00 0.00 0.00 0.00 0.01 0.01 0.00 0.00 0.01 0.00 0.00 0.01 0.02 0.02 0.01 0.00 0.00 0.01 0.01 0.01 0.01 0.01 0.01 0.01 0.01 0.01 0.01 0.01 0.01 0.01 0.01 0.00 0.00 0.00 0.00
0.00 0.00 0.00 0.00 0.00 0.00 0.00 0.00 0.00 0.00 0.00 0.00 0.00 0.00 0.00 0.00 0.00 0.00 0.01 0.01 0.01 0.01 0.01 0.00 0.00 0.01 0.01 0.02 0.01 0.01 0.01 0.01 0.02 0.01 0.01 0.01 0.01 0.00 0.00 0.00 0.01 0.01 0.01 0.01 0.01 0.01 0.01 0.00 0.00
0.00 0.00 0.00 0.00 0.00 0.00 0.00 0.00 0.00 0.00 0.00 0.00 0.00 0.00 0.00 0.00 0.00 0.00 0.01 0.01 0.01 0.00 0.00 0.00 0.00 0.00 0.01 0.02 0.02 0.02 0.01 0.02 0.02 0.02 0.02 0.02 0.01 0.01 0.01 0.00 0.00 0.01 0.01 0.02 0.02 0.02 0.01 0.00 0.00
0.00 0.00 0.00 0.00 0.00 0.00 0.00 0.00 0.00 0.00 0.00 0.00 0.00 0.00 0.00 0.00 0.00 0.00 0.01 0.01 0.01 0.01 0.01 0.00 0.00 0.00 0.01 0.01 0.02 0.02 0.02 0.02 0.03 0.03 0.02 0.02 0.02 0.01 0.01 0.01 0.01 0.02 0.02 0.01 0.01 0.01 0.01 0.00 0.01
0.00 0.00 0.00 0.00 0.00 0.00 0.00 0.00 0.00 0.00 0.00 0.00 0.00 0.00 0.00 0.00 0.00 0.00 0.01 0.01 0.01 0.00 0.00 0.00 0.00 0.00 0.01 0.01 0.02 0.02 0.02 0.02 0.02 0.03 0.02 0.02 0.02 0.01 0.01 0.01 0.02 0.01 0.01 0.01 0.01 0.01 0.01 0.00 0.00
0.01 0.01 0.00 0.00 0.00 0.00 0.00 0.00 0.00 0.00 0.00 0.00 0.00 0.00 0.00 0.00 0.00 0.00 0.00 0.01 0.00 0.00 0.00 0.00 0.00 0.00 0.01 0.01 0.01 0.02 0.02 0.02 0.02 0.03 0.02 0.01 0.01 0.01 0.01 0.01 0.01 0.02 0.02 0.02 0.02 0.01 0.01 0.01 0.01
0.01 0.01 0.01 0.00 0.00 0.00 0.00 0.00 0.00 0.00 0.00 0.00 0.00 0.00 0.00 0.00 0.00 0.00 0.00 0.00 0.00 0.01 0.01 0.01 0.01 0.01 0.01 0.01 0.01 0.01 0.01 0.02 0.02 0.02 0.01 0.02 0.01 0.01 0.01 0.01 0.01 0.01 0.01 0.02 0.02 0.02 0.01 0.01 0.01
0.01 0.02 0.03 0.03 0.01 0.00 0.00 0.00 0.00 0.00 0.00 0.00 0.00 0.00 0.00 0.00 0.00 0.00 0.00 0.00 0.01 0.01 0.01 0.01 0.01 0.00 0.00 0.00 0.00 0.01 0.01 0.01 0.02 0.01 0.02 0.02 0.01 0.01 0.01 0.01 0.01 0.01 0.01 0.01 0.01 0.01 0.01 0.00 0.00
MSLP
1009.05 1010.18 1011.58 1013.10 1014.57 1015.85 1016.82 1017.45 1017.76 1017.82 1017.75 1017.66 1017.63 1017.66 1017.75 1017.82 1017.81 1017.65 1017.31 1016.82 1016.22 1015.61 1015.07 1014.66 1014.41 1014.31 1014.33 1014.39 1014.44 1014.43 1014.35 1014.20 1014.02 1013.83 1013.67 1013.57 1013.50 1013.47 1013.43 1013.37 1013.26 1013.09 1012.88 1012.62 1012.36 1012.10 1011.86 1011.66 1011.47
1009.68 1011.03 1012.59 1014.20 1015.68 1016.87 1017.67 1018.07 1018.11 1017.90 1017.59 1017.29 1017.09 1017.04 1017.09 1017.19 1017.24 1017.18 1016.95 1016.57 1016.09 1015.58 1015.12 1014.78 1014.58 1014.54 1014.59 1014.70 1014.79 1014.84 1014.80 1014.70 1014.55 1014.38 1014.22 1014.09 1013.99 1013.90 1013.81 1013.69 1013.53 1013.33 1013.08 1012.82 1012.54 1012.27 1012.03 1011.80 1011.60
1010.44 1011.94 1013.60 1015.23 1016.65 1017.71 1018.34 1018.52 1018.33 1017.90 1017.39 1016.94 1016.63 1016.52 1016.56 1016.68 1016.79 1016.80 1016.67 1016.40 1016.02 1015.60 1015.22 1014.95 1014.82 1014.81 1014.90 1015.04 1015.17 1015.24 1015.24 1015.17 1015.03 1014.87 1014.70 1014.54 1014.39 1014.25 1014.10 1013.93 1013.72 1013.49 1013.23 1012.97 1012.71 1012.46 1012.24 1012.03 1011.83
1011.29 1012.88 1014.56 1016.14 1017.45 1018.36 1018.80 1018.80 1018.44 1017.86 1017.23 1016.70 1016.34 1016.20 1016.24 1016.38 1016.52 1016.59 1016.53 1016.34 1016.04 1015.71 1015.42 1015.21 1015.12 1015.15 1015.27 1015.42 1015.56 1015.64 1015.65 1015.57 1015.44 1015.27 1015.09 1014.91 1014.73 1014.54 1014.34 1014.13 1013.90 1013.65 1013.40 1013.16 1012.93 1012.72 1012.53 1012.36 1012.19
1012.18 1013.78 1015.40 1016.87 1018.03 1018.77 1019.06 1018.92 1018.46 1017.82 1017.16 1016.62 1016.27 1016.13 1016.18 1016.32 1016.48 1016.58 1016.55 1016.41 1016.18 1015.93 1015.70 1015.55 1015.51 1015.56 1015.69 1015.83 1015.94 1016.01 1015.99 1015.91 1015.77 1015.60 1015.41 1015.22 1015.02 1014.82 1014.60 1014.37 1014.13 1013.88 1013.65 1013.43 1013.24 1013.08 1012.94 1012.80 1012.66
1013.05 1014.58 1016.07 1017.38 1018.36 1018.94 1019.10 1018.88 1018.40 1017.78 1017.18 1016.69 1016.40 1016.30 1016.36 1016.50 1016.65 1016.74 1016.73 1016.61 1016.43 1016.23 1016.07 1015.97 1015.96 1016.03 1016.14 1016.25 1016.32 1016.34 1016.30 1016.19 1016.04 1015.86 1015.68 1015.50 1015.32 1015.13 1014.92 1014.70 1014.47 1014.24 1014.02 1013.83 1013.67 1013.55 1013.44 1013.34 1013.22
1013.79 1015.20 1016.51 1017.62 1018.41 1018.85 1018.92 1018.69 1018.25 1017.73 1017.24 1016.87 1016.66 1016.62 1016.70 1016.83 1016.96 1017.02 1016.99 1016.89 1016.74 1016.59 1016.48 1016.43 1016.45 1016.52 1016.60 1016.66 1016.69 1016.65 1016.55 1016.42 1016.26 1016.10 1015.95 1015.80 1015.66 1015.51 1015.34 1015.14 1014.93 1014.72 1014.52 1014.34 1014.20 1014.10 1014.01 1013.92 1013.80
1014.38 1015.61 1016.72 1017.62 1018.23 1018.54 1018.56 1018.35 1018.01 1017.62 1017.29 1017.07 1016.97 1017.00 1017.09 1017.21 1017.30 1017.33 1017.28 1017.18 1017.06 1016.95 1016.88 1016.88 1016.92 1016.98 1017.04 1017.06 1017.02 1016.93 1016.79 1016.63 1016.47 1016.33 1016.22 1016.13 1016.05 1015.95 1015.83 1015.67 1015.49 1015.29 1015.09 1014.92 1014.78 1014.68 1014.59 1014.49 1014.37
1014.77 1015.83 1016.73 1017.43 1017.88 1018.09 1018.08 1017.93 1017.70 1017.47 1017.30 1017.23 1017.24 1017.33 1017.45 1017.55 1017.60 1017.58 1017.51 1017.41 1017.31 1017.24 1017.22 1017.26 1017.32 1017.38 1017.42 1017.40 1017.31 1017.17 1017.00 1016.82 1016.67 1016.56 1016.50 1016.46 1016.44 1016.41 1016.34 1016.21 1016.05 1015.86 1015.67 1015.50 1015.35 1015.23 1015.13 1015.03 1014.89
1015.02 1015.91 1016.63 1017.15 1017.46 1017.60 1017.59 1017.50 1017.38 1017.29 1017.27 1017.32 1017.42 1017.56 1017.68 1017.76 1017.78 1017.74 1017.65 1017.55 1017.47 1017.44 1017.46 1017.53 1017.62 1017.69 1017.71 1017.66 1017.54 1017.37 1017.17 1016.99 1016.85 1016.77 1016.75 1016.77 1016.80 1016.81 1016.78 1016.69 1016.55 1016.37 1016.18 1016.00 1015.84 1015.72 1015.61 1015.50 1015.35
1015.20 1015.95 1016.52 1016.90 1017.12 1017.19 1017.19 1017.14 1017.11 1017.13 1017.21 1017.34 1017.51 1017.66 1017.78 1017.84 1017.83 1017.77 1017.67 1017.58 1017.53 1017.53 1017.59 1017.69 1017.79 1017.87 1017.89 1017.83 1017.69 1017.51 1017.30 1017.12 1017.00 1016.94 1016.94 1017.00 1017.06 1017.10 1017.10 1017.03 1016.90 1016.74 1016.55 1016.38 1016.23 1016.11 1016.01 1015.91 1015.77
1015.41 1016.06 1016.52 1016.80 1016.94 1016.99 1016.98 1016.96 1016.98 1017.06 1017.19 1017.35 1017.52 1017.68 1017.78 1017.81 1017.78 1017.71 1017.61 1017.54 1017.51 1017.54 1017.62 1017.73 1017.85 1017.93 1017.95 1017.89 1017.76 1017.58 1017.38 1017.21 1017.09 1017.04 1017.06 1017.12 1017.19 1017.24 1017.25 1017.19 1017.08 1016.93 1016.77 1016.62 1016.50 1016.41 1016.35 1016.27 1016.17
1015.74 1016.32 1016.71 1016.93 1017.03 1017.05 1017.03 1017.02 1017.05 1017.13 1017.25 1017.39 1017.54 1017.66 1017.73 1017.74 1017.70 1017.62 1017.53 1017.47 1017.45 1017.49 1017.58 1017.70 1017.82 1017.90 1017.92 1017.86 1017.74 1017.58 1017.40 1017.24 1017.13 1017.07 1017.08 1017.12 1017.18 1017.22 1017.23 1017.18 1017.10 1016.98 1016.86 1016.76 1016.68 1016.65 1016.63 1016.61 1016.55
1016.23 1016.76 1017.11 1017.30 1017.38 1017.39 1017.37 1017.34 1017.34 1017.37 1017.44 1017.52 1017.60 1017.66 1017.69 1017.68 1017.63 1017.56 1017.48 1017.43 1017.42 1017.45 1017.53 1017.63 1017.73 1017.80 1017.82 1017.78 1017.68 1017.54 1017.38 1017.23 1017.12 1017.06 1017.04 1017.05 1017.08 1017.10 1017.10 1017.06 1017.00 1016.93 1016.86 1016.82 1016.81 1016.84 1016.89 1016.93 1016.93
1016.86 1017.35 1017.68 1017.87 1017.95 1017.96 1017.93 1017.88 1017.82 1017.78 1017.76 1017.75 1017.75 1017.74 1017.72 1017.69 1017.64 1017.58 1017.52 1017.48 1017.46 1017.47 1017.52 1017.58 1017.65 1017.69 1017.71 1017.68 1017.60 1017.49 1017.36 1017.23 1017.11 1017.03 1016.98 1016.96 1016.95 1016.94 1016.93 1016.90 1016.87 1016.85 1016.84 1016.86 1016.92 1017.02 1017.12 1017.22 1017.28
1017.55 1018.02 1018.34 1018.54 1018.64 1018.67 1018.63 1018.55 1018.44 1018.32 1018.19 1018.07 1017.97 1017.89 1017.83 1017.78 1017.73 1017.69 1017.65 1017.61 1017.58 1017.57 1017.57 1017.59 1017.61 1017.63 1017.63 1017.60 1017.55 1017.47 1017.37 1017.25 1017.14 1017.04 1016.96 1016.90 1016.86 1016.83 1016.81 1016.80 1016.80 1016.82 1016.86 1016.94 1017.05 1017.19 1017.33 1017.47 1017.57
1018.21 1018.64 1018.97 1019.20 1019.35 1019.41 1019.39 1019.28 1019.11 1018.90 1018.66 1018.44 1018.24 1018.08 1017.98 1017.91 1017.88 1017.86 1017.84 1017.82 1017.78 1017.74 1017.70 1017.67 1017.64 1017.62 1017.61 1017.59 1017.56 1017.51 1017.44 1017.34 1017.24 1017.13 1017.03 1016.94 1016.87 1016.83 1016.80 1016.81 1016.83 1016.88 1016.96 1017.07 1017.21 1017.36 1017.52 1017.66 1017.78
1018.74 1019.15 1019.50 1019.78 1019.99 1020.10 1020.10 1019.99 1019.77 1019.47 1019.13 1018.79 1018.50 1018.27 1018.13 1018.06 1018.04 1018.05 1018.06 1018.05 1018.02 1017.96 1017.88 1017.80 1017.74 1017.69 1017.67 1017.66 1017.65 1017.62 1017.58 1017.50 1017.41 1017.30 1017.18 1017.08 1017.00 1016.95 1016.93 1016.94 1016.98 1017.06 1017.15 1017.26 1017.39 1017.53 1017.67 1017.80 1017.91
1019.09 1019.50 1019.89 1020.24 1020.53 1020.71 1020.74 1020.63 1020.36 1019.98 1019.54 1019.10 1018.70 1018.41 1018.22 1018.14 1018.14 1018.19 1018.24 1018.26 1018.24 1018.17 1018.07 1017.97 1017.88 1017.81 1017.78 1017.78 1017.78 1017.78 1017.76 1017.71 1017.63 1017.52 1017.41 1017.30 1017.22 1017.17 1017.16 1017.18 1017.24 1017.31 1017.41 1017.50 1017.61 1017.71 1017.81 1017.90 1017.98
1019.28 1019.71 1020.16 1020.60 1020.98 1021.23 1021.31 1021.19 1020.88 1020.42 1019.87 1019.31 1018.82 1018.46 1018.23 1018.14 1018.15 1018.23 1018.32 1018.38 1018.38 1018.33 1018.24 1018.13 1018.02 1017.95 1017.92 1017.92 1017.94 1017.96 1017.96 1017.92 1017.85 1017.76 1017.65 1017.55 1017.47 1017.44 1017.44 1017.48 1017.54 1017.62 1017.70 1017.77 1017.83 1017.89 1017.93 1017.98 1018.04
1019.38 1019.86 1020.40 1020.94 1021.41 1021.73 1021.84 1021.71 1021.34 1020.78 1020.13 1019.46 1018.87 1018.42 1018.14 1018.03 1018.06 1018.17 1018.30 1018.40 1018.44 1018.42 1018.34 1018.24 1018.14 1018.07 1018.03 1018.04 1018.07 1018.10 1018.11 1018.09 1018.03 1017.94 1017.84 1017.76 1017.70 1017.68 1017.71 1017.77 1017.85 1017.93 1017.99 1018.04 1018.06 1018.07 1018.08 1018.09 1018.12
1019.48 1020.04 1020.68 1021.33 1021.88 1022.25 1022.37 1022.21 1021.77 1021.11 1020.34 1019.55 1018.86 1018.32 1017.99 1017.86 1017.89 1018.02 1018.19 1018.33 1018.42 1018.43 1018.38 1018.29 1018.20 1018.14 1018.11 1018.12 1018.15 1018.18 1018.19 1018.17 1018.11 1018.03 1017.94 1017.87 1017.84 1017.85 1017.90 1017.99 1018.09 1018.18 1018.25 1018.29 1018.30 1018.28 1018.26 1018.25 1018.26
1019.67 1020.34 1021.08 1021.82 1022.43 1022.83 1022.93 1022.72 1022.19 1021.43 1020.54 1019.64 1018.85 1018.24 1017.85 1017.69 1017.72 1017.86 1018.06 1018.24 1018.35 1018.40 1018.38 1018.31 1018.24 1018.18 1018.15 1018.15 1018.17 1018.19 1018.19 1018.16 1018.10 1018.02 1017.94 1017.88 1017.87 1017.91 1018.00 1018.12 1018.25 1018.37 1018.46 1018.51 1018.52 1018.51 1018.48 1018.47 1018.49
1020.01 1020.78 1021.61 1022.40 1023.05 1023.44 1023.51 1023.22 1022.61 1021.74 1020.75 1019.76 1018.89 1018.22 1017.79 1017.61 1017.63 1017.78 1017.99 1018.19 1018.33 1018.40 1018.39 1018.34 1018.27 1018.22 1018.18 1018.17 1018.17 1018.17 1018.15 1018.10 1018.02 1017.93 1017.86 1017.81 1017.82 1017.89 1018.01 1018.17 1018.34 1018.50 1018.62 1018.70 1018.74 1018.75 1018.74 1018.74 1018.77
1020.46 1021.31 1022.21 1023.03 1023.68 1024.04 1024.04 1023.68 1022.99 1022.04 1020.98 1019.94 1019.02 1018.32 1017.88 1017.69 1017.71 1017.86 1018.07 1018.27 1018.42 1018.49 1018.49 1018.44 1018.37 1018.30 1018.26 1018.22 1018.20 1018.17 1018.12 1018.05 1017.95 1017.85 1017.76 1017.72 1017.74 1017.83 1017.98 1018.17 1018.38 1018.58 1018.75 1018.87 1018.95 1019.00 1019.02 1019.05 1019.09
1020.94 1021.85 1022.77 1023.60 1024.21 1024.51 1024.45 1024.02 1023.28 1022.30 1021.22 1020.17 1019.27 1018.58 1018.16 1017.98 1018.00 1018.16 1018.36 1018.55 1018.69 1018.75 1018.74 1018.67 1018.59 1018.51 1018.44 1018.38 1018.33 1018.27 1018.19 1018.09 1017.96 1017.84 1017.74 1017.69 1017.71 1017.80 1017.97 1018.19 1018.43 1018.66 1018.87 1019.04 1019.16 1019.24 1019.30 1019.35 1019.40
1021.34 1022.28 1023.19 1023.97 1024.53 1024.77 1024.65 1024.19 1023.43 1022.47 1021.43 1020.44 1019.61 1018.99 1018.62 1018.48 1018.52 1018.68 1018.87 1019.04 1019.15 1019.18 1019.14 1019.06 1018.96 1018.86 1018.77 1018.69 1018.61 1018.52 1018.41 1018.27 1018.12 1017.97 1017.85 1017.79 1017.79 1017.88 1018.05 1018.27 1018.53 1018.79 1019.02 1019.22 1019.38 1019.49 1019.57 1019.63 1019.68
1021.56 1022.48 1023.35 1024.07 1024.55 1024.73 1024.58 1024.12 1023.40 1022.51 1021.58 1020.72 1020.01 1019.51 1019.23 1019.15 1019.23 1019.39 1019.56 1019.70 1019.78 1019.77 1019.71 1019.60 1019.48 1019.36 1019.25 1019.16 1019.06 1018.95 1018.81 1018.65 1018.47 1018.29 1018.15 1018.06 1018.04 1018.11 1018.26 1018.47 1018.72 1018.98 1019.23 1019.44 1019.61 1019.74 1019.83 1019.89 1019.93
1021.53 1022.40 1023.19 1023.83 1024.24 1024.37 1024.21 1023.79 1023.16 1022.41 1021.64 1020.96 1020.42 1020.07 1019.91 1019.91 1020.02 1020.19 1020.35 1020.46 1020.49 1020.46 1020.37 1020.24 1020.10 1019.98 1019.87 1019.77 1019.66 1019.54 1019.38 1019.20 1019.00 1018.80 1018.63 1018.51 1018.47 1018.51 1018.63 1018.81 1019.04 1019.28 1019.52 1019.72 1019.89 1020.01 1020.09 1020.14 1020.17
1021.27 1022.05 1022.75 1023.30 1023.63 1023.73 1023.59 1023.23 1022.73 1022.15 1021.59 1021.11 1020.77 1020.58 1020.55 1020.63 1020.79 1020.96 1021.10 1021.18 1021.19 1021.13 1021.03 1020.90 1020.77 1020.65 1020.54 1020.45 1020.35 1020.22 1020.06 1019.87 1019.66 1019.45 1019.26 1019.12 1019.04 1019.05 1019.13 1019.28 1019.47 1019.68 1019.89 1020.07 1020.21 1020.32 1020.39 1020.42 1020.43
Thickness
5793 5792 5789 5777 5753 5731 5726 5735 5743 5745 5747 5754 5756 5752 5745 5740 5736 5734 5753 5761 5762 5761 5762 5762 5763 5763 5763 5763 5763 5763 5763 5763 5762 5762 5762 5762 5762 5762 5761 5762 5762 5762 5763 5762 5761 5761 5762 5763 5763
5792 5790 5780 5762 5736 5717 5724 5738 5741 5747 5753 5756 5756 5752 5746 5743 5749 5751 5755 5760 5761 5761 5760 5761 5761 5761 5761 5761 5760 5760 5760 5760 5759 5759 5759 5759 5759 5759 5759 5759 5759 5759 5759 5758 5758 5758 5758 5759 5759
5790 5786 5766 5747 5730 5721 5729 5742 5745 5752 5758 5757 5751 5751 5747 5745 5751 5753 5758 5760 5760 5759 5759 5758 5758 5758 5758 5758 5757 5757 5757 5757 5756 5756 5756 5756 5756 5755 5755 5755 5755 5755 5755 5755 5754 5754 5754 5754 5755
5783 5771 5757 5739 5730 5735 5740 5746 5750 5751 5755 5756 5751 5744 5748 5755 5756 5758 5760 5759 5757 5756 5756 5756 5756 5755 5755 5755 5754 5754 5754 5753 5753 5753 5753 5752 5752 5752 5752 5751 5751 5751 5751 5751 5750 5750 5750 5750 5751
5776 5758 5740 5728 5732 5741 5747 5751 5753 5750 5749 5751 5748 5741 5743 5754 5760 5760 5758 5757 5755 5754 5753 5753 5753 5753 5752 5752 5751 5750 5750 5750 5749 5749 5749 5749 5749 5748 5748 5748 5747 5747 5747 5747 5746 5746 5746 5746 5746
5759 5747 5725 5720 5730 5741 5749 5754 5752 5748 5747 5748 5746 5740 5742 5753 5755 5756 5756 5754 5753 5751 5750 5750 5750 5749 5749 5748 5747 5747 5746 5746 5746 5745 5745 5745 5745 5745 5744 5744 5743 5742 5743 5742 5742 5742 5742 5742 5742
5750 5737 5725 5725 5727 5736 5748 5754 5749 5745 5744 5746 5748 5737 5741 5748 5753 5754 5753 5751 5750 5749 5747 5747 5746 5746 5745 5744 5744 5743 5743 5742 5742 5741 5741 5741 5741 5740 5740 5740 5739 5739 5738 5738 5738 5737 5737 5737 5737
5755 5738 5726 5724 5726 5734 5749 5753 5753 5749 5746 5753 5751 5738 5737 5747 5752 5751 5749 5747 5746 5745 5744 5743 5743 5742 5741 5741 5740 5739 5739 5738 5737 5737 5737 5736 5736 5736 5735 5735 5735 5735 5734 5733 5733 5732 5732 5731 5731
5757 5729 5719 5725 5729 5737 5749 5748 5751 5755 5749 5749 5750 5748 5750 5752 5750 5746 5742 5741 5741 5741 5741 5741 5740 5739 5738 5737 5736 5735 5735 5734 5733 5733 5733 5732 5731 5731 5730 5730 5730 5730 5730 5728 5728 5727 5727 5726 5726
5744 5723 5729 5739 5741 5742 5747 5748 5748 5746 5741 5741 5744 5747 5750 5748 5745 5741 5738 5736 5736 5736 5737 5738 5737 5736 5734 5733 5732 5731 5731 5730 5729 5729 5728 5727 5727 5726 5725 5725 5725 5725 5724 5723 5722 5721 5721 5721 5720
5743 5732 5739 5744 5748 5748 5746 5746 5749 5741 5735 5740 5741 5743 5744 5743 5740 5738 5736 5736 5735 5735 5735 5735 5734 5733 5731 5730 5729 5728 5727 5726 5725 5725 5724 5723 5723 5722 5721 5720 5719 5719 5719 5718 5717 5716 5716 5715 5714
5739 5740 5743 5745 5750 5749 5745 5745 5742 5741 5744 5752 5751 5748 5744 5739 5737 5736 5735 5734 5734 5733 5733 5733 5732 5730 5728 5727 5726 5724 5723 5722 5722 5721 5720 5720 5718 5717 5716 5715 5714 5714 5713 5712 5711 5711 5710 5710 5709
5736 5739 5745 5747 5748 5747 5745 5742 5741 5742 5749 5751 5748 5744 5740 5738 5737 5736 5736 5734 5732 5731 5731 5730 5729 5727 5725 5724 5723 5721 5720 5719 5718 5717 5716 5715 5714 5713 5711 5710 5709 5709 5708 5707 5706 5706 5705 5704 5704
5737 5738 5739 5742 5743 5744 5739 5738 5738 5740 5746 5744 5741 5738 5737 5736 5735 5733 5732 5731 5730 5730 5729 5729 5727 5725 5723 5721 5719 5718 5717 5716 5715 5714 5713 5712 5710 5709 5707 5706 5705 5704 5703 5703 5702 5701 5700 5699 5698
5739 5731 5730 5735 5737 5739 5736 5726 5731 5740 5741 5737 5736 5734 5734 5734 5734 5733 5733 5732 5731 5729 5729 5727 5725 5723 5721 5719 5717 5716 5714 5713 5712 5710 5709 5708 5707 5705 5704 5702 5700 5699 5699 5698 5697 5696 5695 5694 5693
5727 5717 5710 5725 5732 5735 5727 5711 5730 5737 5735 5730 5730 5730 5730 5731 5732 5733 5733 5732 5731 5729 5726 5726 5725 5721 5719 5717 5715 5713 5712 5710 5709 5707 5706 5704 5703 5701 5700 5698 5696 5695 5695 5694 5692 5690 5689 5687 5686
5706 5699 5703 5715 5728 5728 5720 5713 5728 5733 5731 5727 5727 5727 5727 5727 5729 5731 5732 5731 5730 5728 5725 5723 5722 5719 5717 5714 5712 5710 5708 5707 5705 5704 5702 5701 5699 5698 5696 5694 5692 5691 5690 5689 5688 5684 5683 5680 5679
5695 5697 5700 5706 5719 5719 5713 5713 5724 5728 5727 5725 5725 5724 5724 5725 5728 5730 5730 5730 5728 5725 5723 5721 5718 5716 5714 5711 5708 5706 5704 5702 5701 5700 5699 5697 5696 5694 5692 5690 5688 5687 5685 5683 5682 5679 5677 5675 5674
5705 5701 5699 5706 5718 5714 5709 5711 5719 5724 5722 5721 5721 5721 5722 5725 5729 5729 5728 5727 5724 5722 5720 5718 5715 5713 5710 5707 5704 5701 5698 5698 5697 5696 5695 5694 5692 5691 5689 5686 5684 5682 5680 5678 5677 5675 5672 5670 5669
5703 5698 5697 5705 5715 5712 5706 5708 5718 5721 5722 5724 5724 5723 5724 5724 5725 5725 5725 5723 5721 5719 5717 5715 5713 5711 5709 5706 5703 5700 5697 5695 5694 5693 5692 5691 5689 5687 5685 5683 5680 5678 5676 5674 5672 5670 5667 5665 5664
5698 5696 5698 5699 5706 5707 5703 5700 5710 5719 5723 5725 5725 5725 5726 5725 5724 5723 5722 5720 5719 5717 5716 5715 5712 5710 5708 5705 5700 5697 5693 5691 5689 5687 5687 5686 5685 5683 5681 5679 5677 5674 5672 5670 5668 5666 5664 5660 5658
5692 5706 5705 5701 5691 5683 5693 5677 5700 5710 5714 5719 5721 5722 5723 5725 5725 5723 5721 5718 5717 5717 5715 5713 5711 5708 5706 5703 5699 5695 5690 5687 5686 5685 5683 5682 5681 5680 5677 5675 5673 5671 5668 5666 5664 5662 5660 5658 5654
5702 5709 5704 5698 5688 5679 5683 5676 5689 5704 5707 5715 5719 5721 5724 5725 5724 5723 5722 5720 5718 5716 5714 5712 5709 5706 5703 5700 5698 5694 5690 5687 5684 5682 5680 5678 5677 5675 5673 5671 5669 5667 5664 5662 5661 5659 5657 5655 5652
5708 5699 5690 5680 5674 5666 5677 5672 5681 5696 5709 5716 5721 5723 5724 5724 5723 5722 5721 5719 5716 5714 5711 5709 5706 5703 5701 5698 5695 5692 5688 5684 5680 5678 5676 5673 5672 5670 5669 5667 5665 5663 5661 5658 5657 5655 5653 5651 5649
5699 5680 5661 5659 5651 5657 5676 5673 5683 5709 5716 5718 5720 5722 5723 5723 5721 5720 5718 5715 5713 5710 5708 5706 5703 5700 5698 5695 5692 5690 5687 5683 5680 5677 5674 5670 5668 5666 5665 5664 5661 5659 5657 5655 5653 5651 5649 5647 5645
5690 5681 5659 5649 5646 5654 5670 5669 5692 5714 5718 5720 5721 5722 5722 5720 5719 5718 5717 5714 5712 5710 5706 5703 5700 5698 5695 5692 5690 5687 5684 5681 5678 5675 5672 5669 5666 5665 5663 5660 5658 5656 5654 5652 5649 5647 5645 5643 5641
5683 5676 5679 5660 5656 5651 5659 5674 5695 5713 5714 5716 5717 5717 5716 5716 5716 5715 5714 5712 5710 5708 5705 5702 5699 5695 5692 5690 5687 5683 5681 5678 5675 5672 5669 5666 5664 5662 5659 5657 5654 5652 5650 5648 5645 5642 5640 5639 5637
5692 5678 5663 5655 5645 5642 5655 5666 5678 5697 5703 5707 5709 5710 5712 5712 5712 5711 5710 5709 5707 5705 5702 5699 5696 5693 5690 5687 5684 5681 5678 5675 5672 5669 5665 5663 5661 5658 5655 5652 5650 5647 5645 5643 5640 5638 5636 5634 5632
5678 5672 5664 5653 5651 5641 5642 5661 5693 5697 5701 5702 5703 5705 5706 5707 5707 5706 5705 5704 5702 5700 5697 5694 5691 5688 5685 5683 5679 5677 5673 5671 5668 5665 5662 5660 5657 5654 5652 5649 5646 5643 5641 5638 5636 5633 5631 5629 5627
5683 5675 5663 5652 5647 5642 5641 5660 5698 5698 5699 5699 5699 5700 5701 5702 5702 5701 5700 5698 5696 5693 5691 5689 5687 5684 5682 5679 5675 5672 5669 5666 5663 5661 5658 5656 5653 5650 5648 5645 5642 5639 5637 5634 5632 5629 5626 5624 5621